Theta_e
296 296 297 297 298 298 299 300 301 300 299 299 298 298 297 296 295 295 294 294 294 294
294 294 294 295 296 297 297 297 298 299 298 297 297 296 295 294 294 294 294 294 294 293
292 293 293 293 293 293 294 295 295 296 296 296 295 295 294 293 293 293 292 292 292 292
290 290 290 290 291 291 292 292 292 293 293 294 293 293 293 292 292 291 291 291 290 290
288 288 287 287 288 289 290 291 290 290 290 291 291 292 292 291 290 290 289 290 289 289
287 286 285 285 286 287 287 288 289 288 288 288 289 289 290 290 289 289 289 289 288 287
285 285 284 284 285 285 285 285 286 287 287 287 287 287 288 287 288 288 288 288 288 288
284 284 283 282 283 284 284 284 285 285 285 286 286 285 286 286 286 286 286 287 287 287
282 282 281 281 281 283 281 282 283 283 283 284 284 286 288 287 285 285 284 284 286 285
281 280 280 280 279 280 279 280 280 281 282 282 283 286 287 288 285 285 285 284 284 284
280 279 279 278 278 277 278 278 278 280 281 281 282 285 286 287 286 285 285 285 284 284
280 278 278 276 276 276 276 276 276 278 278 279 281 284 285 285 285 284 284 285 285 285
279 277 276 276 275 275 274 275 275 275 276 277 278 282 283 284 283 283 283 284 284 285
277 276 276 275 274 273 272 272 272 272 273 275 277 278 282 284 282 282 282 283 283 284
Wind_Speed
13 8 7 7 6 6 6 5 7 7 10 12 13 13 12 10 11 12 12 16 12 9
11 11 10 11 9 6 7 7 7 7 8 11 12 14 13 11 12 12 13 14 14 11
12 12 11 9 9 9 9 9 10 8 8 8 11 12 13 12 12 13 11 10 14 13
10 11 10 10 12 12 10 8 9 9 9 9 9 11 12 13 13 15 14 13 14 15
10 9 9 10 10 10 11 11 9 8 7 9 9 10 11 13 12 16 16 16 15 16
9 9 9 9 9 10 10 11 10 9 8 9 9 10 11 13 14 15 16 15 16 16
8 8 9 9 8 8 9 10 10 10 9 9 10 10 11 11 13 14 16 16 16 16
9 9 8 9 10 9 9 9 10 11 10 10 9 7 10 12 13 14 16 16 17 17
9 9 9 9 9 9 9 10 9 10 10 11 8 15 18 15 13 15 16 17 16 16
10 10 10 10 11 11 11 11 11 12 11 11 11 18 21 21 12 13 16 19 16 14
11 12 11 11 11 12 12 13 13 13 13 13 11 20 21 21 15 15 18 19 19 17
12 12 12 13 15 14 12 13 14 14 16 15 15 22 22 19 14 15 18 16 17 18
14 13 14 14 15 14 14 16 14 17 16 19 20 25 26 21 11 15 13 15 17 25
16 16 15 15 15 15 16 17 18 19 19 19 19 21 29 28 14 13 13 13 12 12
Wind_Direction
18 2 335 329 326 313 302 272 245 244 235 228 227 229 223 223 217 210 215 218 214 207
16 16 6 347 337 329 315 308 304 280 246 236 237 230 222 222 222 222 216 216 218 222
11 5 5 6 4 348 329 319 304 287 269 247 239 238 232 226 222 224 224 222 218 217
10 9 3 358 355 354 339 329 312 303 290 270 250 241 234 235 233 226 222 224 227 223
3 3 3 356 354 349 342 333 325 307 292 285 268 260 247 239 235 237 231 224 219 224
356 358 360 352 344 342 337 333 334 325 311 291 282 271 259 250 243 239 239 233 227 220
338 337 346 337 331 329 331 330 328 325 314 297 287 278 269 258 249 250 248 239 232 228
321 324 321 323 322 319 318 315 314 312 310 302 289 281 284 274 261 252 252 247 242 230
310 310 310 308 309 299 309 306 299 296 294 293 285 284 274 265 270 270 256 251 246 240
302 300 304 308 311 308 305 302 300 294 291 288 286 285 281 272 255 249 258 260 251 243
293 293 292 299 298 302 303 301 295 290 291 286 282 284 282 274 266 255 250 249 253 249
279 279 283 292 297 297 298 294 292 287 286 280 278 279 279 275 265 259 256 252 250 249
286 279 277 276 279 283 287 284 288 285 280 279 277 273 274 272 259 260 257 250 247 241
292 288 284 282 280 282 284 282 280 280 280 277 269 271 269 267 257 253 259 256 251 242